{"data":{"norad_id":67931,"epoch":"2026-09-19T14:49:31.963584Z","epoch_age_seconds":139447,"freshness":"FRESH","line1":"1 67931U 26036AD  26262.61773106  .00008690  00000+0  32487-3 0  9991","line2":"2 67931  42.9977 229.8083 0001189 270.5476  89.5239 15.27585884 33384","mean_motion":15.27585884,"eccentricity":0.0001189,"inclination_deg":42.9977,"raan_deg":229.8083,"arg_perigee_deg":270.5476,"mean_anomaly_deg":89.5239,"bstar":0.00032487,"rev_number":3338,"period_min":94.266385614231,"perigee_km":482.2156843515,"apogee_km":483.8472702154,"semimajor_km":6861.1684772834,"source":"CELESTRAK","updated_at":"2026-09-20T09:00:43.706349Z"}}